User: anonymous   Login
Location: Unspecified
(0.0000°N, 0.0000°E)
Time: 09:03:19
(UTC+00:00)
Language:

STARLINK-6340 - Orbit

View from above orbital plane
View from above orbital plane
View from above satellite
View from above satellite

Ground track
Ground track

The orbit is defined by the following mean orbital elements,

1 57361U          26145.44194005 +.00000000 +00000-0 +11157-4 0 00009
2 57361  43.0016 168.5554 0001071 294.7000  65.3740 15.27576075    03
Epoch (UTC): 25 May 2026 10:36:23
Eccentricity: 0.0001071
inclination: 43.0016°
perigee height: 482 km
apogee height: 484 km
right ascension of ascending node: 168.5554°
argument of perigee: 294.7000°
revolutions per day: 15.27576075
mean anomaly at epoch: 65.3740°

The dashed part of the orbit path shows where the satellite is in the earth's shadow,  

DLR